Weather History for Long Beach, CA

Change the Weather History Date:

Saturday, August 10, 2013

  Actual Average Record
Temperature  
Mean Temperature 68 °F 74 °F  
Max Temperature 74 °F 84 °F 97 °F (2003)
Min Temperature 62 °F 65 °F 56 °F (1962)
Degree Days  
Heating Degree Days 0 0  
Month to date heating degree days 0 0  
Since 1 June heating degree days 0 6  
Since 1 July heating degree days 0 0  
Cooling Degree Days 3 9  
Month to date cooling degree days 52 90  
Year to date cooling degree days 605 568  
Since 1 June cooling degree days 456 465  
Growing Degree Days 18 (Base 50)    
Moisture  
Dew Point 56 °F    
Average Humidity 69    
Maximum Humidity 84    
Minimum Humidity 53    
Precipitation  
Precipitation 0.00 in 0.00 in 0.00 in (2015)
Month to date precipitation 0.00 0.01  
Year to date precipitation 2.94 8.48  
Since 1 July precipitation 0.07 0.04  
Sea Level Pressure  
Sea Level Pressure 30.00 in    
Wind  
Wind Speed 5 mph (SW)    
Max Wind Speed 10 mph    
Max Gust Speed 14 mph    
Visibility 10 miles    
Events      
T = Trace of Precipitation, MM = Missing Value Source: NWS Daily Summary

Daily Weather History Graph

Daily Weather History Graph

Search for Another Location

Airport:

Trip Planner

Search our weather history database for the weather conditions in past years. The results will help you decide how hot, cold, wet, or windy it might be!

Date:

Astronomy

Aug. 10, 2013 Rise Set
Actual Time 6:11 AM PDT 7:44 PM PDT
Civil Twilight 5:44 AM PDT 8:10 PM PDT
Nautical Twilight 5:12 AM PDT 8:42 PM PDT
Astronomical Twilight 4:38 AM PDT 9:16 PM PDT
Moon 9:48 AM PDT (8/10) 9:43 PM PDT (8/10)
Length of Visible Light 14h 26m
Length of Day
13h 33m
Waxing Crescent, 15% of the Moon is Illuminated
Aug 10
Waxing Crescent
Aug 14
First Quarter
Aug 20
Full
Aug 28
Last Quarter
Sep 5
New

Hourly Weather History & Observations

Time (PDT) Temp. Dew Point Humidity Pressure Visibility Wind Dir Wind Speed Gust Speed Precip Events Conditions
12:53 AM 63.0 °F 55.9 °F 78% 29.97 in 10.0 mi Calm Calm - N/A   Clear
2:12 AM 62.6 °F 57.2 °F 82% 29.97 in 10.0 mi Calm Calm - N/A   Mostly Cloudy
2:53 AM 64.0 °F 57.0 °F 78% 29.98 in 10.0 mi South 3.5 mph - N/A   Overcast
3:53 AM 64.0 °F 55.9 °F 75% 29.98 in 10.0 mi SE 4.6 mph - N/A   Overcast
4:53 AM 64.0 °F 55.0 °F 73% 29.98 in 10.0 mi SW 4.6 mph - N/A   Overcast
5:53 AM 64.0 °F 55.0 °F 73% 29.99 in 10.0 mi Calm Calm - N/A   Overcast
6:53 AM 63.0 °F 55.0 °F 75% 30.00 in 10.0 mi South 3.5 mph - N/A   Overcast
7:36 AM 62.6 °F 55.4 °F 77% 30.02 in 10.0 mi Calm Calm - N/A   Overcast
7:44 AM 64.4 °F 55.4 °F 73% 30.02 in 10.0 mi Calm Calm - N/A   Overcast
7:53 AM 64.9 °F 55.0 °F 70% 30.02 in 10.0 mi Calm Calm - N/A   Overcast
8:53 AM 64.0 °F 55.0 °F 73% 30.03 in 10.0 mi South 3.5 mph - N/A   Overcast
9:53 AM 64.9 °F 55.0 °F 70% 30.04 in 10.0 mi South 4.6 mph - N/A   Overcast
10:53 AM 66.9 °F 55.0 °F 66% 30.04 in 10.0 mi Calm Calm - N/A   Mostly Cloudy
11:29 AM 68.0 °F 55.4 °F 64% 30.04 in 10.0 mi South 6.9 mph - N/A   Scattered Clouds
11:53 AM 69.1 °F 54.0 °F 58% 30.03 in 10.0 mi Variable 5.8 mph - N/A   Partly Cloudy
12:53 PM 69.1 °F 54.0 °F 58% 30.02 in 10.0 mi Variable 3.5 mph - N/A   Clear
1:53 PM 71.1 °F 55.0 °F 57% 30.01 in 10.0 mi South 5.8 mph - N/A   Clear
2:53 PM 72.0 °F 55.0 °F 55% 30.00 in 10.0 mi SSW 6.9 mph - N/A   Clear
3:53 PM 72.0 °F 55.9 °F 57% 29.98 in 10.0 mi SSW 6.9 mph - N/A   Clear
4:53 PM 71.1 °F 55.9 °F 59% 29.97 in 10.0 mi South 8.1 mph - N/A   Clear
5:53 PM 73.9 °F 55.9 °F 53% 29.96 in 10.0 mi NNW 6.9 mph - N/A   Clear
6:53 PM 71.1 °F 55.0 °F 57% 29.95 in 10.0 mi WNW 8.1 mph - N/A   Clear
7:53 PM 66.9 °F 57.0 °F 70% 29.96 in 10.0 mi WNW 6.9 mph - N/A   Clear
8:53 PM 66.0 °F 57.0 °F 73% 29.97 in 10.0 mi WNW 5.8 mph - N/A   Clear
9:53 PM 64.9 °F 57.0 °F 75% 29.99 in 10.0 mi NW 5.8 mph - N/A   Clear
10:53 PM 64.0 °F 57.0 °F 78% 29.98 in 10.0 mi NW 6.9 mph - N/A   Clear
11:53 PM 63.0 °F 57.0 °F 81% 29.99 in 9.0 mi NW 5.8 mph - N/A   Clear